This is the latest recevied weather packets stored in our database for station/object N4ZIQ. If no packets are shown the sender has not sent any weather packets the latest 10 day(s).
| Time | Temp. | Humidity | Pressure | Rain* | Wind** | Luminosity | Snow |
|---|---|---|---|---|---|---|---|
| 1777658461 | 30.56° C | 56% | 1011.8 hPa | 0 mm | - | 163 W/m² | - |
| 1777658147 | 30.56° C | 56% | 1011.8 hPa | 0 mm | - | 928 W/m² | - |
| 1777657847 | 30° C | 57% | 1011.8 hPa | 0 mm | - | 211 W/m² | - |
| 1777657555 | 30° C | 56% | 1011.9 hPa | 0 mm | - | 160 W/m² | - |
| 1777657248 | 30.56° C | 56% | 1012 hPa | 0 mm | - | 953 W/m² | - |
| 1777656947 | 30.56° C | 55% | 1012 hPa | 0 mm | - | 192 W/m² | - |
| 1777656680 | 30.56° C | 53% | 1012 hPa | 0 mm | - | 939 W/m² | - |
| 1777656347 | 31.11° C | 55% | 1012.1 hPa | 0 mm | - | 896 W/m² | - |
| 1777656046 | 31.11° C | 54% | 1012 hPa | 0 mm | - | 912 W/m² | - |
| 1777655758 | 30.56° C | 56% | 1012 hPa | 0 mm | - | 900 W/m² | - |
| 1777655446 | 30.56° C | 55% | 1012 hPa | 0 mm | - | 898 W/m² | - |
| 1777655146 | 30.56° C | 55% | 1012.1 hPa | 0 mm | - | 904 W/m² | - |
| 1777654871 | 30.56° C | 57% | 1012.2 hPa | 0 mm | - | 886 W/m² | - |
| 1777654545 | 30.56° C | 56% | 1012.1 hPa | 0 mm | - | 865 W/m² | - |
| 1777654246 | 30.56° C | 55% | 1012.3 hPa | 0 mm | - | 879 W/m² | - |
| 1777653972 | 30.56° C | 54% | 1012.4 hPa | 0 mm | - | 840 W/m² | - |
| 1777653646 | 30.56° C | 56% | 1012.5 hPa | 0 mm | - | 851 W/m² | - |
| 1777653345 | 30.56° C | 55% | 1012.5 hPa | 0 mm | - | 853 W/m² | - |
| 1777653068 | 30° C | 57% | 1012.5 hPa | 0 mm | - | 860 W/m² | - |
| 1777652746 | 30° C | 58% | 1012.6 hPa | 0 mm | - | 861 W/m² | - |
| 1777652449 | 30° C | 59% | 1012.7 hPa | 0 mm | - | 853 W/m² | - |
| 1777652165 | 29.44° C | 59% | 1012.8 hPa | 0 mm | - | 849 W/m² | - |
| 1777651846 | 29.44° C | 58% | 1012.6 hPa | 0 mm | - | 846 W/m² | - |
| 1777651547 | 29.44° C | 59% | 1012.8 hPa | 0 mm | - | 831 W/m² | - |
| 1777651251 | 29.44° C | 59% | 1012.7 hPa | 0 mm | - | 830 W/m² | - |
* Rain latest hour (hover to see other rain measurements)
** Current wind speed in m/s (hover to see current wind gust speed)